DW2182 Weather Reports


time (UTC)temp
F
wind
direction
speed
knots
gust
knots
rain 1hr
in
rain 24hr
in
rain mn
in
humidity
%
barometer
mb
20260901203515 84 45 0.9 2.6 0.00 0.00 0.00 74 1012.9
20260901202515 84 68 0.9 3.5 0.00 0.00 0.00 73 1012.9
20260901201515 84 68 0.9 1.7 0.00 0.00 0.00 74 1013.0
20260901200516 84 0.0 1.7 0.00 0.00 0.00 76 1013.1
20260901195516 84 68 0.9 3.5 0.00 0.00 0.00 73 1013.1
20260901194517 84 90 0.9 2.6 0.00 0.00 0.00 72 1013.1
20260901193515 84 45 0.9 2.6 0.00 0.00 0.00 73 1013.1
20260901192537 84 45 0.9 2.6 0.00 0.00 0.00 73 1013.1
20260901191515 84 45 0.9 3.5 0.00 0.00 0.00 73 1013.1
20260901190518 84 68 0.9 2.6 0.00 0.00 0.00 70 1013.3
20260901185518 84 68 0.9 2.6 0.00 0.00 0.00 71 1013.1
20260901184538 83 0.0 0.0 0.00 0.00 0.00 75 1013.1
20260901183517 83 0.0 1.7 0.00 0.00 0.00 73 1013.5
20260901182537 83 135 0.9 2.6 0.00 0.00 0.00 70 1013.7
20260901181517 84 0.0 0.0 0.00 0.00 0.00 70 1014.0
20260901180517 83 68 0.9 2.6 0.00 0.00 0.00 72 1014.0
20260901175518 84 68 0.9 2.6 0.00 0.00 0.00 71 1014.1
20260901174518 82 45 0.9 2.6 0.00 0.00 0.00 73 1014.1
20260901173515 82 45 0.9 2.6 0.00 0.00 0.00 72 1014.3
20260901172517 82 45 0.9 2.6 0.00 0.00 0.00 75 1013.9
20260901171518 82 45 0.9 2.6 0.00 0.00 0.00 72 1014.3
20260901170518 82 45 0.9 3.5 0.00 0.00 0.00 71 1014.5
20260901165518 82 23 0.9 2.6 0.00 0.00 0.00 72 1014.6
20260901164518 81 0 0.9 4.3 0.00 0.00 0.00 75 1014.4
20260901163517 80 23 1.7 3.5 0.00 0.00 0.00 76 1014.4
20260901162517 80 23 1.7 3.5 0.00 0.00 0.00 77 1014.4
20260901161537 79 45 0.9 3.5 0.00 0.00 0.00 76 1014.5
20260901160517 79 45 0.9 2.6 0.00 0.00 0.00 77 1014.5
20260901155517 79 0.0 0.0 0.00 0.00 0.00 75 1014.4
20260901154518 80 0.0 1.7 0.00 0.00 0.00 75 1014.5
20260901153519 78 23 0.9 1.7 0.00 0.00 0.00 77 1014.5
20260901152538 77 23 0.9 3.5 0.00 0.00 0.00 76 1014.4
20260901151518 76 23 0.9 1.7 0.00 0.00 0.00 78 1014.4
20260901150538 75 0.0 0.9 0.00 0.00 0.00 80 1014.3
20260901145558 75 23 0.9 2.6 0.00 0.00 0.00 80 1014.4
20260901144518 75 0.0 0.0 0.00 0.00 0.00 80 1014.5
20260901143518 74 0.0 0.0 0.00 0.00 0.00 84 1014.4
20260901142518 73 0.0 0.0 0.00 0.00 0.00 84 1014.3
20260901141518 73 0.0 0.0 0.00 0.00 0.00 85 1014.5
20260901140518 73 0.0 0.0 0.00 0.00 0.00 86 1014.6
20260901135518 72 0.0 0.0 0.00 0.00 0.00 88 1014.6
20260901134518 71 0.0 0.0 0.00 0.00 0.00 90 1014.6
20260901133517 69 0.0 0.0 0.00 0.00 0.00 92 1014.6
20260901132517 68 0.0 0.0 0.00 0.00 0.00 94 1014.8
20260901131517 67 0.0 0.0 0.00 0.00 0.00 96 1014.7
20260901130517 66 0.0 0.0 0.00 0.00 0.00 96 1014.5
20260901125537 65 0.0 0.0 0.00 0.00 0.00 96 1014.4
20260901124537 65 0.0 0.0 0.00 0.00 0.00 96 1014.4
20260901123537 65 0.0 0.0 0.00 0.00 0.00 96 1014.2
20260901122517 64 0.0 0.0 0.00 0.00 0.00 96 1014.2
20260901121517 64 0.0 0.0 0.00 0.00 0.00 96 1014.2
20260901120517 64 0.0 0.0 0.00 0.00 0.00 96 1014.1
20260901115517 64 0.0 0.0 0.00 0.00 0.00 96 1014.0
20260901114517 64 0.0 0.9 0.00 0.00 0.00 96 1014.2
20260901113518 64 0.0 0.0 0.00 0.00 0.00 96 1014.1
20260901112517 64 0.0 0.0 0.00 0.00 0.00 96 1014.0
20260901111517 64 0.0 0.0 0.00 0.00 0.00 96 1013.9
20260901110517 64 0.0 0.0 0.00 0.00 0.00 96 1014.0
20260901105517 64 0.0 0.0 0.00 0.00 0.00 96 1013.9
20260901104517 64 0.0 0.0 0.00 0.00 0.00 96 1013.8
20260901103517 64 0.0 0.0 0.00 0.00 0.00 96 1013.8
20260901102557 64 0.0 0.0 0.00 0.00 0.00 96 1013.8
20260901101517 64 0.0 0.0 0.00 0.00 0.00 96 1013.7
20260901100517 64 0.0 0.0 0.00 0.00 0.00 96 1013.6
20260901095517 64 0.0 0.0 0.00 0.00 0.00 96 1013.5
20260901094517 64 0.0 0.0 0.00 0.00 0.00 96 1013.5
20260901093517 64 0.0 0.0 0.00 0.00 0.00 96 1013.5
20260901092517 64 0.0 0.0 0.00 0.00 0.00 96 1013.6
20260901091517 64 0.0 0.0 0.00 0.00 0.00 96 1013.5
20260901090517 64 0.0 0.0 0.00 0.00 0.00 96 1013.6
20260901085557 64 0.0 0.0 0.00 0.00 0.00 96 1013.4
20260901084537 65 0.0 0.0 0.00 0.00 0.00 95 1013.4
20260901083517 65 0.0 0.0 0.00 0.00 0.00 96 1013.3
20260901082516 65 0.0 0.0 0.00 0.00 0.00 95 1013.4
20260901081517 65 0.0 0.0 0.00 0.00 0.00 95 1013.7
20260901080541 65 0.0 0.0 0.00 0.00 0.00 95 1013.6
20260901075517 65 0.0 0.0 0.00 0.00 0.00 95 1013.5
20260901074517 65 0.0 0.0 0.00 0.00 0.00 95 1013.6
20260901073537 65 0.0 0.0 0.00 0.00 0.00 95 1013.5
20260901072516 65 0.0 0.0 0.00 0.00 0.00 95 1013.5
20260901071537 66 0.0 0.0 0.00 0.00 0.00 95 1013.5
20260901070517 66 0.0 0.0 0.00 0.00 0.00 95 1013.6
20260901065517 66 0.0 0.0 0.00 0.00 0.00 95 1013.6
20260901064537 66 0.0 0.0 0.00 0.00 0.00 95 1013.7
20260901063517 66 0.0 0.0 0.00 0.00 0.00 95 1013.7
20260901062519 66 0.0 0.0 0.00 0.00 0.00 95 1013.9
20260901061517 66 0.0 0.0 0.00 0.00 0.00 94 1013.8
20260901060517 66 0.0 0.0 0.00 0.00 0.00 94 1013.6
20260901055516 66 0.0 0.0 0.00 0.00 0.00 94 1013.8
20260901054517 67 0.0 0.0 0.00 0.00 0.00 94 1013.8
20260901053516 67 0.0 0.0 0.00 0.00 0.00 94 1013.8
20260901052516 67 0.0 0.0 0.00 0.00 0.00 94 1013.8
20260901051517 67 0.0 0.0 0.00 0.00 0.00 94 1013.7
20260901050517 67 0.0 0.0 0.00 0.00 0.00 94 1013.5
20260901045517 67 0.0 0.0 0.00 0.00 0.00 94 1013.5
20260901044516 67 0.0 0.0 0.00 0.00 0.00 94 1013.4
20260901043516 68 0.0 0.0 0.00 0.00 0.00 94 1013.3
20260901042517 68 0.0 0.0 0.00 0.00 0.00 93 1013.2
20260901041517 68 0.0 0.0 0.00 0.00 0.00 93 1013.2
20260901040536 68 0.0 0.0 0.00 0.00 0.00 93 1013.0
20260901035517 69 0.0 0.0 0.00 0.00 0.00 92 1013.0
20260901034517 69 0.0 0.0 0.00 0.00 0.00 92 1013.1
20260901033517 69 0.0 0.0 0.00 0.00 0.00 91 1013.0
20260901032517 70 0.0 0.0 0.00 0.00 0.00 90 1013.0
20260901031517 70 0.0 0.0 0.00 0.00 0.00 90 1012.9
20260901030517 70 0.0 0.0 0.00 0.00 0.00 89 1012.8
20260901025516 71 0.0 0.0 0.00 0.00 0.00 88 1012.7
20260901024516 71 0.0 0.0 0.00 0.00 0.00 87 1012.6
20260901023516 72 0.0 0.0 0.00 0.00 0.00 86 1012.6
20260901022516 73 0.0 0.0 0.00 0.00 0.00 84 1012.7
20260901021516 73 0.0 0.0 0.00 0.00 0.00 82 1012.5
20260901020516 73 0.0 0.0 0.00 0.00 0.00 83 1012.4
20260901015537 73 0.0 0.0 0.00 0.00 0.00 84 1012.4
20260901014516 74 0.0 0.0 0.00 0.00 0.00 82 1012.6
20260901013516 75 0.0 0.0 0.00 0.00 0.00 78 1012.5
20260901012517 76 0.0 0.0 0.00 0.00 0.00 76 1012.4
20260901011557 77 0.0 0.0 0.00 0.00 0.00 73 1012.3
20260901010517 78 0.0 0.0 0.00 0.00 0.00 72 1012.4
20260901005516 79 0.0 1.7 0.00 0.00 0.00 71 1012.2
20260901004517 80 0.0 0.0 0.00 0.00 0.00 69 1012.3
20260901003517 80 0.0 0.0 0.00 0.00 0.00 67 1012.3
20260901002516 81 0.0 0.0 0.00 0.00 0.00 65 1012.4
20260901001517 81 23 0.9 3.5 0.00 0.00 0.00 64 1012.2
20260901000516 82 23 0.9 2.6 0.00 0.00 0.00 63 1012.4
20260831235516 82 0.0 0.0 0.00 0.00 0.00 63 1012.3
20260831234516 84 23 1.7 4.3 0.00 0.00 0.00 59 1012.2
20260831233516 84 135 1.7 2.6 0.00 0.00 0.00 57 1012.3
20260831232516 85 23 1.7 5.2 0.00 0.00 0.00 55 1012.3
20260831231536 85 0 0.9 1.7 0.00 0.00 0.00 56 1012.3
20260831230516 85 0 2.6 6.1 0.00 0.00 0.00 52 1012.3
20260831225516 86 0 2.6 7.0 0.00 0.00 0.00 48 1012.2
20260831224517 86 158 1.7 6.1 0.00 0.00 0.00 51 1012.3
20260831223517 87 135 2.6 5.2 0.00 0.00 0.00 50 1012.3
20260831222517 87 135 1.7 3.5 0.00 0.00 0.00 47 1012.1
20260831221516 87 158 1.7 4.3 0.00 0.00 0.00 46 1012.1
20260831220516 87 0 2.6 6.1 0.00 0.00 0.00 48 1012.2
20260831215516 87 0 4.3 7.8 0.00 0.00 0.00 48 1012.1
20260831214516 88 23 3.5 7.0 0.00 0.00 0.00 49 1012.2
20260831213516 88 0 1.7 3.5 0.00 0.00 0.00 48 1012.1
20260831212516 88 135 0.9 3.5 0.00 0.00 0.00 49 1011.9
20260831211516 88 0 1.7 4.3 0.00 0.00 0.00 50 1012.0
20260831210516 88 0 2.6 6.1 0.00 0.00 0.00 49 1012.0
20260831205519 89 135 1.7 4.3 0.00 0.00 0.00 50 1011.9
20260831204517 89 135 2.6 7.0 0.00 0.00 0.00 48 1011.9